TimeCDT,TemperatureF,Dew PointF,Humidity,Sea Level PressureIn,VisibilityMPH,Wind Direction,Wind SpeedMPH,Gust SpeedMPH,PrecipitationIn,Events,Conditions,WindDirDegrees,DateUTC
12:53 AM,71.1,64.0,78,29.84,10.0,South,5.8,-,N/A,,Clear,180,2013-08-20 05:53:00
1:53 AM,72.0,64.0,76,29.84,10.0,SSW,9.2,-,N/A,,Clear,200,2013-08-20 06:53:00
2:53 AM,71.1,64.9,81,29.82,10.0,SE,8.1,-,N/A,,Clear,140,2013-08-20 07:53:00
3:53 AM,73.0,66.0,79,29.81,10.0,SSE,6.9,-,N/A,,Clear,150,2013-08-20 08:53:00
4:53 AM,71.1,64.9,81,29.80,10.0,SSE,3.5,-,N/A,,Clear,160,2013-08-20 09:53:00
5:53 AM,72.0,66.0,81,29.80,10.0,SE,4.6,-,N/A,,Clear,140,2013-08-20 10:53:00
6:53 AM,75.9,66.0,71,29.80,10.0,South,10.4,-,N/A,,Clear,180,2013-08-20 11:53:00
7:53 AM,75.0,66.0,73,29.80,10.0,SE,9.2,-,N/A,,Clear,140,2013-08-20 12:53:00
8:53 AM,80.1,66.9,64,29.81,10.0,SSW,9.2,-,N/A,,Clear,210,2013-08-20 13:53:00
9:53 AM,84.0,66.9,56,29.79,10.0,South,13.8,-,N/A,,Unknown,170,2013-08-20 14:53:00
10:53 AM,87.1,68.0,53,29.81,10.0,SSE,8.1,-,N/A,,Clear,160,2013-08-20 15:53:00
11:53 AM,90.0,66.9,46,29.81,10.0,SE,9.2,-,N/A,,Clear,140,2013-08-20 16:53:00
12:53 PM,93.0,-9999,N/A,29.79,10.0,SSE,10.4,-,N/A,,Clear,150,2013-08-20 17:53:00
1:53 PM,95.0,63.0,34,29.78,10.0,SSE,13.8,-,N/A,,Clear,160,2013-08-20 18:53:00
2:53 PM,96.1,66.0,37,29.77,10.0,SSE,12.7,-,N/A,,Clear,160,2013-08-20 19:53:00
3:53 PM,97.0,66.0,36,29.75,10.0,SSE,13.8,19.6,N/A,,Clear,160,2013-08-20 20:53:00
4:53 PM,97.0,-9999,N/A,29.75,10.0,SSE,10.4,-,N/A,,Clear,160,2013-08-20 21:53:00
5:53 PM,93.9,68.0,43,29.75,8.0,SSE,11.5,-,N/A,,Clear,160,2013-08-20 22:53:00
6:53 PM,90.0,69.1,50,29.75,10.0,SSE,8.1,-,N/A,,Clear,150,2013-08-20 23:53:00
7:53 PM,88.0,70.0,55,29.74,10.0,SSE,10.4,-,N/A,,Clear,150,2013-08-21 00:53:00
8:53 PM,84.0,69.1,61,29.75,10.0,SE,9.2,-,N/A,,Clear,140,2013-08-21 01:53:00
9:26 PM,82.4,69.8,66,29.79,10.0,SE,11.5,-,N/A,Thunderstorm,Clear,140,2013-08-21 02:26:00
9:51 PM,82.4,69.8,66,29.80,10.0,SE,11.5,20.7,0.00,Rain,Light Rain,140,2013-08-21 02:51:00
9:53 PM,82.9,70.0,65,29.74,10.0,SSE,10.4,20.7,0.00,Rain,Light Rain,160,2013-08-21 02:53:00
10:00 PM,87.8,60.8,40,29.80,10.0,South,23.0,36.8,0.00,Rain-Thunderstorm,Light Thunderstorms and Rain,190,2013-08-21 03:00:00
10:53 PM,84.0,69.1,61,29.75,10.0,SSE,11.5,-,0.04,Thunderstorm,Thunderstorm,160,2013-08-21 03:53:00
11:11 PM,84.2,66.2,55,29.87,10.0,North,16.1,21.9,N/A,Thunderstorm,Clear,350,2013-08-21 04:11:00
11:43 PM,82.4,68.0,62,29.88,10.0,SSE,6.9,-,0.00,,Partly Cloudy,150,2013-08-21 04:43:00
11:53 PM,82.9,68.0,60,29.81,10.0,SSE,8.1,-,0.00,,Partly Cloudy,150,2013-08-21 04:53:00